[[{"header":{"parameterUnit":"m.s-1","parameterCategory":1,"la1":30.2991,"la2":30.254,"lo1":-89.0895,"lo2":-89.0444,"dy":0.0017,"dx":0.0017,"nx":28,"ny":28,"refTime":"2023-09-23T21:00:00:Z","depth":0,"parameterNumber":2,"parameterNumberName":"U-component_of_WINDS"},"data":[0,0,0,0,0,0,0,0,0,0,0,0,0,0,0,0,0,0,0,0,0,0,0,0,0,0,0,0,0,0,0,0,0,0,0,0,0,0,0,0,0,0,0,0,0,0,0,0,0,0,0,0,0,0,0,0,0,0,-1.7785,-1.7785,0,-1.7779,-1.7779,-1.7779,-1.7713,-1.7711,-1.771,-1.7708,-1.7703,-1.7704,-1.7706,0,0,0,0,0,0,0,0,0,0,0,0,0,-1.7741,-1.7742,-1.7785,-1.7785,-1.7785,-1.7779,-1.7779,-1.7779,-1.7713,-1.7711,-1.7709,-1.7708,-1.7703,-1.7704,-1.7706,0,0,0,0,0,0,0,0,0,0,0,0,0,-1.775,-1.7743,-1.7785,-1.7752,-1.7749,-1.7779,-1.7779,-1.7779,-1.7714,-1.7711,-1.7709,-1.7707,-1.7702,-1.7704,-1.7706,-1.7769,0,0,-1.7713,-1.7713,0,0,0,0,0,0,0,0,-1.775,-1.7752,-1.7757,-1.7754,-1.7751,-1.7744,-1.7761,-1.7776,-1.7714,-1.7727,-1.7708,-1.7705,-1.7719,-1.7719,-1.7724,-1.7769,-1.7768,-1.7713,-1.7714,-1.7715,-1.7715,0,0,0,0,0,0,0,-1.7749,-1.7752,-1.7783,-1.7757,-1.7753,-1.7737,-1.7736,-1.7764,-1.7737,-1.7726,-1.7721,-1.7721,-1.7717,-1.7722,-1.7723,-1.7768,-1.7713,-1.7715,-1.7716,-1.7717,-1.7864,-1.7867,0,0,0,0,0,0,-1.7753,-1.7752,-1.7783,-1.7783,-1.7744,-1.774,-1.7738,-1.7749,-1.7736,-1.7732,-1.7723,-1.7718,-1.7719,-1.7721,-1.7723,-1.7795,-1.7715,-1.7717,-1.7718,-1.7862,-1.7865,-1.7868,0,0,0,0,0,0,-1.7752,-1.7756,-1.7783,-1.7766,-1.7768,-1.7743,-1.7756,-1.775,-1.7755,-1.7735,-1.773,-1.7733,-1.7718,-1.772,-1.7758,-1.7794,-1.7718,-1.772,-1.7859,-1.7863,-1.7866,-1.7942,0,0,0,0,0,0,-1.7751,-1.7757,-1.778,-1.7767,-1.7769,-1.7818,-1.7758,-1.7752,-1.7759,-1.7752,-1.7743,-1.7739,-1.7716,-1.7755,-1.776,-1.7796,-1.7721,-1.7855,-1.786,-1.7865,-1.7936,-1.7948,-1.7958,0,0,0,0,0,-1.775,-1.7801,-1.7782,-1.7786,-1.7798,-1.7821,-1.7822,-1.7794,-1.7762,-1.7785,-1.7772,-1.7739,-1.779,-1.7759,-1.7764,-1.7802,-1.7853,-1.7859,-1.7865,-1.7931,-1.7945,-1.7958,0,0,0,0,0,0,-1.782,-1.7799,-1.7777,-1.7825,-1.7825,-1.7809,-1.7838,-1.781,-1.782,-1.7813,-1.7778,-1.7777,-1.782,-1.7815,-1.7781,-1.7862,-1.7815,-1.7823,-1.7864,-1.7878,-1.7888,-1.7889,-1.7723,0,0,0,0,0,-1.7841,-1.7861,-1.7842,-1.7887,-1.7888,-1.7863,-1.7872,-1.7851,-1.7849,-1.7849,-1.7838,-1.7839,-1.7854,-1.7866,-1.7879,-1.7934,-1.7932,-1.7962,-1.7974,-1.7983,-1.799,-1.8019,-1.8032,-1.7888,-1.7888,-1.7887,0,0,-1.7885,-1.7876,-1.789,-1.79,-1.7898,-1.792,-1.7864,-1.7889,-1.7905,-1.7853,-1.7888,-1.7881,-1.7878,-1.7926,-1.7946,-1.7922,-1.8029,-1.799,-1.7998,-1.8,-1.8026,-1.804,-1.8052,-1.7892,-1.7891,-1.789,0,0,-1.7975,-1.7971,-1.8007,-1.8006,-1.8003,-1.7986,-1.7995,-1.7984,-1.7976,-1.8011,-1.7973,-1.7991,-1.8019,-1.8019,-1.8023,-1.8115,-1.8085,-1.812,-1.8178,-1.8207,-1.8218,-1.8228,-1.8261,-1.8273,-1.8127,-1.8127,-1.8127,0,-1.803,-1.8061,-1.803,-1.8058,-1.8064,-1.8017,-1.8055,-1.8055,-1.8056,-1.8062,-1.8035,-1.8069,-1.8064,-1.8111,-1.8134,-1.8138,-1.8147,-1.8121,-1.8219,-1.8229,-1.8238,-1.8269,-1.8281,-1.8131,-1.8131,-1.813,-1.813,0,-1.8129,-1.8151,-1.8181,-1.8184,-1.8193,-1.8226,-1.82,-1.8213,-1.8191,-1.8177,-1.8213,-1.8206,-1.8217,-1.8227,-1.8206,-1.8271,-1.8256,-1.8225,-1.8178,-1.8256,-1.8285,-1.8296,-1.8137,-1.8136,-1.8135,-1.8133,0,0,-1.8264,-1.8248,-1.826,-1.8261,-1.8254,-1.8271,-1.8301,-1.8312,-1.8324,-1.8327,-1.8352,-1.8377,-1.8348,-1.8352,-1.833,-1.8356,-1.8429,-1.8321,-1.8321,-1.8342,-1.8501,-1.8525,-1.8539,-1.8409,-1.8411,-1.8413,-1.8501,0,-1.8351,-1.8403,-1.8376,-1.8431,-1.8451,-1.8407,-1.8434,-1.8433,-1.8421,-1.8437,-1.8424,-1.8442,-1.8402,-1.8405,-1.8428,-1.8415,-1.8461,-1.8408,-1.8433,-1.8434,-1.8435,-1.8554,-1.8579,-1.8663,-1.8512,-1.8514,-1.8515,0,-1.8461,-1.8468,-1.8525,-1.8514,-1.8522,-1.8546,-1.8554,-1.857,-1.8568,-1.8557,-1.8563,-1.8535,-1.8565,-1.8518,-1.8559,-1.8524,-1.8532,-1.8527,-1.853,-1.8531,-1.848,-1.8559,-1.8689,-1.8702,-1.8533,-1.8531,-1.853,0,-1.8554,-1.8577,-1.8615,-1.8617,-1.8605,-1.8624,-1.862,-1.8615,-1.8623,-1.863,-1.8636,-1.8646,-1.8652,-1.8661,-1.8637,-1.8605,-1.8681,-1.8632,-1.8674,-1.8675,-1.8692,-1.8691,-1.8826,-1.8697,-1.8697,-1.8697,-1.8697,0,-1.8654,-1.8691,-1.8656,-1.8679,-1.8719,-1.8688,-1.8729,-1.872,-1.8717,-1.8737,-1.87,-1.8721,-1.8688,-1.8705,-1.8687,-1.8723,-1.8726,-1.8719,-1.8714,-1.8722,-1.8723,-1.8727,-1.8721,-1.87,-1.8699,-1.8699,-1.8698,0,-1.8765,-1.8743,-1.8781,-1.8767,-1.8764,-1.8795,-1.8783,-1.8804,-1.8789,-1.8816,-1.8821,-1.8798,-1.8817,-1.8794,-1.881,-1.8798,-1.8848,-1.8834,-1.8849,-1.8845,-1.8887,-1.8884,-1.9029,-1.9047,-1.8907,-1.8909,-1.891,0,-1.8831,-1.8858,-1.8847,-1.8858,-1.8857,-1.8875,-1.8884,-1.8854,-1.8864,-1.8864,-1.8885,-1.8901,-1.8911,-1.8943,-1.8928,-1.8941,-1.8927,-1.8977,-1.8928,-1.8936,-1.8928,-1.8926,-1.8929,-1.8987,-1.8988,-1.899,-1.8991,0,-1.895,-1.8938,-1.8951,-1.8961,-1.8972,-1.8979,-1.8982,-1.8993,-1.8963,-1.8976,-1.8994,-1.9003,-1.9019,-1.9035,-1.9044,-1.904,-1.9011,-1.9006,-1.9016,-1.9026,-1.9033,-1.903,-1.8876,-1.9003,-1.9002,-1.9001,-1.9,-1.9,-1.9041,-1.9063,-1.9059,-1.9075,-1.9075,-1.9079,-1.9098,-1.9086,-1.91,-1.9112,-1.9093,-1.9117,-1.9114,-1.9122,-1.9122,-1.914,-1.9118,-1.9133,-1.9137,-1.9141,-1.9148,-1.9031,-1.9141,-1.9141,-1.9141,-1.914,-1.914,0,-1.9158,-1.9154,-1.9169,-1.9175,-1.9188,-1.9159,-1.9161,-1.9174,-1.9195,-1.9195,-1.9206,-1.9227,-1.9242,-1.9229,-1.9242,-1.9259,-1.9246,-1.9263,-1.9262,-1.9261,-1.9166,-1.9156,-1.9273,-1.9273,-1.9273,-1.9273,-1.9273,-1.9273,-1.9221,-1.9257,-1.9245,-1.9281,-1.9276,-1.9298,-1.9302,-1.9306,-1.9305,-1.9331,-1.9343,-1.9334,-1.9329,-1.9341,-1.9354,-1.935,-1.9356,-1.9378,-1.9369,-1.9281,-1.9268,-1.9255,-1.9246,-1.938,-1.938,-1.9463,-1.9464,-1.9464]},{"header":{"parameterUnit":"m.s-1","parameterCategory":1,"la1":30.2991,"la2":30.254,"lo1":-89.0895,"lo2":-89.0444,"dy":0.0017,"dx":0.0017,"nx":28,"ny":28,"refTime":"2023-09-23T21:00:00:Z","depth":0,"parameterNumber":3,"parameterNumberName":"V-component_of_WINDS"},"data":[0,0,0,0,0,0,0,0,0,0,0,0,0,0,0,0,0,0,0,0,0,0,0,0,0,0,0,0,0,0,0,0,0,0,0,0,0,0,0,0,0,0,0,0,0,0,0,0,0,0,0,0,0,0,0,0,0,0,-0.8491,-0.8492,0,-0.8498,-0.8498,-0.8498,-0.8463,-0.8462,-0.8461,-0.846,-0.8468,-0.8469,-0.847,0,0,0,0,0,0,0,0,0,0,0,0,0,-0.8449,-0.845,-0.8491,-0.8492,-0.8492,-0.8498,-0.8498,-0.8498,-0.8463,-0.8462,-0.8461,-0.8459,-0.8468,-0.8469,-0.847,0,0,0,0,0,0,0,0,0,0,0,0,0,-0.8463,-0.845,-0.8491,-0.8475,-0.8473,-0.8498,-0.8498,-0.8498,-0.8463,-0.8462,-0.846,-0.8459,-0.8467,-0.8469,-0.847,-0.8512,0,0,-0.8476,-0.8477,0,0,0,0,0,0,0,0,-0.8462,-0.8464,-0.8477,-0.8476,-0.8475,-0.8478,-0.8486,-0.8503,-0.8464,-0.8467,-0.846,-0.8458,-0.8473,-0.8474,-0.8478,-0.8512,-0.8512,-0.8476,-0.8477,-0.8478,-0.8478,0,0,0,0,0,0,0,-0.8461,-0.8464,-0.8494,-0.8477,-0.8476,-0.8467,-0.8467,-0.8489,-0.8478,-0.8467,-0.8464,-0.8465,-0.8472,-0.8477,-0.8478,-0.8512,-0.8476,-0.8477,-0.8478,-0.8479,-0.858,-0.8581,0,0,0,0,0,0,-0.8462,-0.8463,-0.8494,-0.8494,-0.8464,-0.8469,-0.847,-0.8478,-0.8478,-0.8477,-0.8467,-0.8464,-0.8475,-0.8476,-0.8478,-0.8527,-0.8478,-0.8479,-0.848,-0.8578,-0.858,-0.8582,0,0,0,0,0,0,-0.8462,-0.8465,-0.8494,-0.8478,-0.8481,-0.8472,-0.8482,-0.8479,-0.8485,-0.8478,-0.8476,-0.8474,-0.8473,-0.8476,-0.8503,-0.8526,-0.848,-0.8482,-0.8576,-0.8578,-0.8581,-0.8623,0,0,0,0,0,0,-0.846,-0.8465,-0.8481,-0.8479,-0.8482,-0.8519,-0.8483,-0.8481,-0.8488,-0.8484,-0.8484,-0.8483,-0.8472,-0.8501,-0.8505,-0.8528,-0.8483,-0.8574,-0.8577,-0.858,-0.862,-0.8627,-0.8633,0,0,0,0,0,-0.8459,-0.8493,-0.8482,-0.8486,-0.8501,-0.852,-0.8522,-0.8509,-0.849,-0.8505,-0.8501,-0.8483,-0.8523,-0.8504,-0.8508,-0.8532,-0.8572,-0.8576,-0.858,-0.8617,-0.8626,-0.8633,0,0,0,0,0,0,-0.8499,-0.8492,-0.848,-0.8514,-0.8518,-0.8514,-0.8533,-0.8518,-0.8528,-0.8524,-0.8507,-0.8508,-0.8538,-0.8538,-0.8517,-0.8572,-0.8544,-0.8549,-0.8571,-0.8579,-0.8586,-0.8586,-0.8484,0,0,0,0,0,-0.8511,-0.8527,-0.8521,-0.8551,-0.8554,-0.8543,-0.8551,-0.854,-0.8544,-0.8545,-0.8543,-0.8547,-0.856,-0.8569,-0.8581,-0.8619,-0.8619,-0.8637,-0.8644,-0.8649,-0.8654,-0.8674,-0.8682,-0.8594,-0.8594,-0.8594,0,0,-0.8538,-0.8536,-0.8547,-0.8559,-0.8561,-0.8577,-0.8545,-0.8564,-0.8576,-0.8548,-0.8574,-0.8572,-0.8575,-0.8608,-0.8623,-0.8609,-0.8678,-0.8654,-0.8658,-0.866,-0.8679,-0.8687,-0.8695,-0.8596,-0.8596,-0.8595,0,0,-0.8595,-0.8595,-0.8621,-0.8623,-0.8625,-0.8618,-0.8624,-0.8622,-0.862,-0.8645,-0.8624,-0.8638,-0.8662,-0.8665,-0.867,-0.8727,-0.8711,-0.8731,-0.8766,-0.8785,-0.8792,-0.8798,-0.8819,-0.8827,-0.8735,-0.8735,-0.8735,0,-0.8628,-0.8652,-0.8636,-0.8656,-0.8662,-0.8636,-0.8662,-0.8665,-0.8672,-0.8676,-0.866,-0.8689,-0.8689,-0.8722,-0.8736,-0.8741,-0.8747,-0.8731,-0.8792,-0.8798,-0.8804,-0.8824,-0.8832,-0.8738,-0.8738,-0.8737,-0.8737,0,-0.8693,-0.871,-0.873,-0.8736,-0.8744,-0.8767,-0.8755,-0.8765,-0.8753,-0.8747,-0.8773,-0.8772,-0.8784,-0.879,-0.8779,-0.8822,-0.8813,-0.8795,-0.8768,-0.8815,-0.8834,-0.8841,-0.8741,-0.874,-0.874,-0.8739,0,0,-0.8777,-0.8773,-0.8781,-0.8783,-0.8783,-0.8796,-0.8818,-0.8828,-0.8837,-0.8842,-0.886,-0.8879,-0.8862,-0.8868,-0.8857,-0.8874,-0.8919,-0.8853,-0.8853,-0.8866,-0.8966,-0.8981,-0.899,-0.8908,-0.8909,-0.891,-0.8966,0,-0.8834,-0.887,-0.8856,-0.8894,-0.8909,-0.8884,-0.8903,-0.8905,-0.89,-0.8912,-0.8906,-0.8921,-0.8897,-0.89,-0.8915,-0.891,-0.8939,-0.8906,-0.8925,-0.8926,-0.8927,-0.8999,-0.9015,-0.9068,-0.8973,-0.8975,-0.8975,0,-0.8905,-0.8912,-0.8951,-0.8948,-0.8954,-0.8971,-0.8979,-0.8991,-0.8993,-0.8988,-0.8993,-0.8978,-0.8999,-0.897,-0.8999,-0.8977,-0.8983,-0.8982,-0.8984,-0.8986,-0.8955,-0.9005,-0.9085,-0.9093,-0.8986,-0.8985,-0.8985,0,-0.8963,-0.8982,-0.9008,-0.9011,-0.9008,-0.902,-0.902,-0.902,-0.9027,-0.9033,-0.9038,-0.9047,-0.9053,-0.906,-0.9048,-0.9028,-0.9079,-0.9049,-0.9076,-0.9076,-0.9089,-0.9089,-0.9172,-0.9091,-0.9091,-0.9091,-0.9091,0,-0.9029,-0.9054,-0.9035,-0.9051,-0.9078,-0.9061,-0.9088,-0.9085,-0.9085,-0.91,-0.9078,-0.9093,-0.9075,-0.9088,-0.9079,-0.9104,-0.9107,-0.9104,-0.9101,-0.9106,-0.9107,-0.9112,-0.9108,-0.9093,-0.9093,-0.9092,-0.9092,0,-0.9099,-0.9087,-0.9114,-0.9108,-0.9107,-0.9128,-0.9123,-0.9137,-0.913,-0.9149,-0.9153,-0.9142,-0.9156,-0.9144,-0.9157,-0.9151,-0.9185,-0.9177,-0.9185,-0.9183,-0.921,-0.9208,-0.9301,-0.9312,-0.9223,-0.9224,-0.9225,0,-0.9142,-0.9161,-0.9157,-0.9165,-0.9166,-0.9179,-0.9186,-0.9169,-0.9177,-0.918,-0.9194,-0.9206,-0.9215,-0.9239,-0.9232,-0.9242,-0.9235,-0.9266,-0.9236,-0.9241,-0.9236,-0.9236,-0.9238,-0.9273,-0.9274,-0.9275,-0.9275,0,-0.9221,-0.9213,-0.9224,-0.9232,-0.924,-0.9246,-0.925,-0.9258,-0.9241,-0.9251,-0.9264,-0.9271,-0.9284,-0.9297,-0.9305,-0.9304,-0.9287,-0.9285,-0.9291,-0.9298,-0.9302,-0.9301,-0.9203,-0.9283,-0.9282,-0.9282,-0.9281,-0.9281,-0.9279,-0.9295,-0.9294,-0.9306,-0.9307,-0.9311,-0.9325,-0.9318,-0.9329,-0.9339,-0.9328,-0.9345,-0.9345,-0.9354,-0.9355,-0.9368,-0.9355,-0.9365,-0.9368,-0.9371,-0.9375,-0.9299,-0.9369,-0.9369,-0.9369,-0.9369,-0.9369,0,-0.9357,-0.9355,-0.9366,-0.9372,-0.9382,-0.9363,-0.9367,-0.9376,-0.9391,-0.9392,-0.9401,-0.9417,-0.9428,-0.9422,-0.9432,-0.9444,-0.9436,-0.9447,-0.9447,-0.9447,-0.9386,-0.9379,-0.9453,-0.9453,-0.9453,-0.9453,-0.9453,-0.9453,-0.9399,-0.9424,-0.9417,-0.9442,-0.9439,-0.9456,-0.9459,-0.9463,-0.9464,-0.9482,-0.9491,-0.9486,-0.9485,-0.9494,-0.9504,-0.9502,-0.9507,-0.9521,-0.9516,-0.9459,-0.9451,-0.9443,-0.9437,-0.9522,-0.9522,-0.9576,-0.9577,-0.9577]}]]